www.pogodaiklimat.ru

Погода и климат >> Архив погоды >> Корея >> Сеул


АРХИВ ПОГОДЫ в Сеуле

Время (UTC), дата Ветер
(напр.,м/с)
 
Видим.   Явления Облачность Т
(С)
Тd
(С)
f
(%)
Тe
(С)
Тes
(С)
Комфортность P
(гПа)
Po
(гПа)
Тmin
(С)
Tmax
(С)
R
(мм)
R24
(мм)
S
(см)
03 9.06 Ю 1 13 км 8/8 1000 м
[Sc Ci fib]
+25.6 +14.7 51 +28 +33 жарко 1005.0 995.3
06 9.06 СЗ 2 16 км 10/4 1000 м
[Sc As op]
+25.5 +15.5 54 +29 +30 душно 1003.4 993.7
09 9.06 З 2 17 км {дождь} 9/0
[Ac trans]
+23.7 +16.4 64 +27 +29 жарко 1002.9 993.2
12 9.06 В 6 20 км слаб. дождь 9/9 600 м
[Sc]
+20.1 +13.7 67 +22 +22 комфорт 1005.1 995.2 +26.5 0.0
15 9.06 В 2 20 км слаб. дождь {гроза} 10/8 1500 м
[Sc As op]
+17.2 +13.3 78 +18 +18 по сезону 1005.5 995.5
18 9.06 В 2 4100 м слаб. дождь {гроза} 10/9 600 м
[Frnb As op]
+15.9 +14.7 93 +16 +16 по сезону 1006.1 996.1 8
21 9.06 В 1 14 км слаб. дождь 10/9 600 м
[Frnb As op]
+15.7 +14.7 94 +16 +16 прохладно 1007.0 996.9
00 10.06 В 3 20 км в посл. час дождь 9/6 300 м
[Sc As op]
+17.3 +14.5 84 +17 +19 холодно 1007.6 997.6 +15.7 12
03 10.06 В 2 20 км 9/8 600 м
[Sc As op]
+19.3 +13.2 68 +21 +24 комфорт 1007.7 997.8
06 10.06 В 2 20 км 9/3 1000 м
[Sc As op]
+20.7 +12.6 60 +24 +27 комфорт 1007.3 997.4
09 10.06 В 1 20 км 8/0
[Ac trans]
+21.4 +10.5 50 +23 +25 комфорт 1005.9 996.1
12 10.06 В 3 20 км 3/0
[Ac trans]
+19.4 +10.1 55 +21 +21 комфорт 1007.6 997.7 +21.9 0.0
15 10.06 В 2 20 км 8/0
[Ac trans]
+17.4 +9.0 58 +18 +18 прохладно 1008.8 998.8
18 10.06 В 2 20 км 9/4 1500 м
[Sc Ac trans]
+16.6 +8.0 57 +17 +17 по сезону 1008.8 998.8
21 10.06 СВ 1 20 км 1/1 1500 м
[Sc]
+15.6 +8.0 61 +16 +17 прохладно 1009.3 999.2
00 11.06 СВ 3 20 км 3/3 1500 м
[Sc Ci fib]
+20.0 +8.0 46 +21 +27 комфорт 1009.7 999.8 +15.5 0.0
03 11.06 20 км н/о +23.5 +8.7 39 +24 +31 комфорт 1008.8 999.1
06 11.06 ЮЗ 2 20 км 6/6 1500 м
[Sc]
+24.5 +9.2 38 +25 +30 комфорт 1007.9 998.2
09 11.06 20 км н/о +23.9 +10.1 42 +25 +27 комфорт 1007.1 997.4
12 11.06 З 2 20 км ясно +21.1 +12.5 58 +23 +23 комфорт 1008.3 998.4
15 11.06 Ю 1 20 км ясно +18.9 +12.8 68 +21 +21 комфорт 1009.7 999.8
18 11.06 З 1 20 км 3/0
[Ci fib]
+17.2 +13.7 80 +18 +18 по сезону 1009.9 999.9
21 11.06 СВ 1 19 км ясно +16.2 +12.3 78 +17 +17 прохладно 1010.6 1000.5
00 12.06 ЮЗ 1 17 км ясно +21.7 +12.2 55 +24 +36 комфорт 1010.9 1001.0 +16.1
03 12.06 14 км н/о +25.8 +13.2 46 +28 +33 жарко 1010.2 1000.5
06 12.06 З 4 17 км 1/1 1000 м
[Sc]
+25.9 +13.7 47 +28 +37 жарко 1009.4 999.7
09 12.06 З 4 20 км ясно +24.8 +11.3 43 +26 +28 жарко 1009.2 999.4
12 12.06 СЗ 2 20 км ясно +21.4 +10.8 51 +23 +23 комфорт 1010.2 1000.3 +26.4
15 12.06 СЗ 2 20 км ясно +19.1 +10.3 57 +21 +21 комфорт 1010.9 1001.0
18 12.06 СЗ 1 20 км ясно +17.5 +12.1 71 +19 +19 по сезону 1010.9 1000.9
21 12.06 штиль 0 19 км ясно +16.9 +11.8 72 +17 +17 прохладно 1010.9 1000.9
00 13.06 В 2 15 км 1/0
[Ci fib]
+22.9 +11.9 50 +25 +36 комфорт 1011.2 1001.4 +16.6
03 13.06 ЮЗ 2 15 км ясно +26.8 +11.2 38 +28 +48 жарко 1010.2 1000.5
06 13.06 З 3 19 км ясно +28.4 +12.2 37 +30 +42 жарко 1008.1 998.5
09 13.06 З 6 19 км 8/0
[Ci fib]
+27.6 +11.1 36 +28 +29 жарко 1007.6 998.0
12 13.06 С 7 18 км 8/0
[Ci fib]
+23.0 +12.6 52 +26 +26 жарко 1008.8 999.0 +28.8
15 13.06 З 1 18 км 9/0
[Ci sp]
+20.8 +12.4 59 +24 +24 комфорт 1008.5 998.6
18 13.06 З 1 13 км 9/0
[Ci sp]
+19.8 +12.7 64 +23 +23 комфорт 1007.3 997.4
21 13.06 СЗ 2 11 км 9/0
[Ci sp]
+19.2 +13.3 69 +21 +21 комфорт 1007.1 997.2
00 14.06 З 5 17 км 10/0
[As trans]
+20.8 +11.4 55 +23 +25 комфорт 1007.0 997.1 +19.1
03 14.06 СЗ 2 16 км 8/0
[Ci fib]
+24.9 +12.4 46 +27 +44 жарко 1006.2 996.5
06 14.06 СЗ 2 20 км 4/0
[Ci fib]
+28.2 +9.4 31 +28 +42 жарко 1003.9 994.3
09 14.06 З 3 18 км 8/0
[Ci fib]
+26.7 +12.7 42 +28 +30 жарко 1002.4 992.8
12 14.06 З 3 20 км 3/0
[Ac trans]
+23.1 +14.6 59 +27 +27 душно 1003.5 993.8 +28.4
15 14.06 СЗ 2 15 км ясно +20.9 +15.6 72 +25 +25 комфорт 1003.3 993.5
18 14.06 СЗ 3 12 км 8/0
[Ac trans]
+20.0 +15.4 75 +23 +23 комфорт 1001.8 991.9
21 14.06 С 2 11 км ясно +19.0 +14.0 73 +21 +21 комфорт 1001.6 991.8
00 15.06 З 6 12 км 3/3 1000 м
[Sc]
+21.3 +14.4 65 +24 +27 комфорт 1001.6 991.8 +19.0
03 15.06 З 4 14 км 3/3 1000 м
[Sc]
+25.1 +13.9 50 +27 +37 жарко 999.6 989.9
06 15.06 19 км н/о +26.4 +13.1 44 +28 +31 жарко 997.4 987.8
09 15.06 18 км н/о +26.1 +13.8 47 +28 +29 жарко 997.1 987.5
12 15.06 СВ 2 20 км {гроза, ливн. осадки} 3/3 1500 м
[Sc]
+19.1 +12.3 65 +21 +21 комфорт 1000.1 990.3 +27.4 2
15 15.06 З 1 20 км ясно +17.9 +12.9 73 +19 +19 по сезону 1002.5 992.6
18 15.06 СВ 1 19 км ясно +16.9 +12.2 74 +18 +18 по сезону 1003.1 993.1
21 15.06 СВ 1 20 км ясно +16.2 +12.3 78 +17 +17 прохладно 1004.9 994.9

 

Местоположение метеостанции Сеул (Корея): широта 37.57 долгота 126.96 высота над уровнем моря 86 м.

В архиве по умолчанию представлена погода в Сеуле за последнюю неделю. Архивные данные за месяц целиком и за предыдущие месяцы, начиная с января 2011 года, Вы можете получить, выбрав интересующий диапазон дат из раскрывающегося списка и нажав кнопку "Ввод!".


*Определитесь, кто Вы:
робот инопланетянин человек

Внимание! Время в таблицах - всемирное. Для получения местного времени необходимо прибавить поправку, которая равна 9 ч.

Смотрите также архив погоды в соседних городах и на ближайших метеорологических станциях:

Погода в Инчхоне (Корея) (31 км)
Погода в Сувоне (Корея) (33 км)
Погода в Тондучхоне (Корея) (38 км)
Погода в Мунсане (Корея) (39 км)
Погода в Кэсоне (КНДР) (57 км)
Погода в Ичхоне (Корея) (57 км)
Погода в Букчунчеоне (Корея) (60 км)
Погода на Базе Camp Humphreys (Корея) (69 км)
Погода в Чхорвоне (Корея) (71 км)
Погода в Чунчоне (Корея) (74 км)

Пояснения к столбцам:

Ветер - указаны скорость ветра в м/с - средняя за 10 мин, порывы в срок и между сроками (в фигурных скобках) и направление, откуда дует ветер: С - северный, СВ - северо-восточный, В - восточный, ЮВ - юго-восточный, Ю - южный, ЮЗ - юго-западный, З - западный, СЗ - северо-западный.
Видимость - горизонтальная дальность видимости в метрах или километрах. При видимости от 1 до 10 км при отсутствии осадков обычно наблюдается дымка, при ухудшении видимости до 1 км и менее - туман. В сухую погоду видимость может ухудшаться дымом, пылью или мглою.
Явления - указаны атмосферные явления, наблюдавшиеся в срок или в последний час перед сроком; фигурными скобками обозначены явления, наблюдавшиеся между сроками (за 1-3 часа до срока); квадратными скобками обозначены град или гололедные отложения с указанием их диаметра в мм.
Облачность - указаны через наклонную черту общая и нижняя облачность в баллах и высота нижней границы облаков в метрах; квадратными скобками обозначены формы облаков: Ci - перистые, Cs - перисто-слоистые, Cc - перисто-кучевые, Ac - высококучевые, As - высокослоистые, Sc - слоисто-кучевые, Ns - слоисто-дождевые, Cu - кучевые, Cb - кучево-дождевые. Подробнее классификацию облаков см. в Атласе облаков (PDF).
T - Температура воздуха - температура, измеренная на высоте 2 м над землей.
Td - Температура точки росы - температура, при понижении до которой содержащийся в воздухе водяной пар достигнет насыщения.
f - Относительная влажность воздуха - влажноcть воздуха, измеренная на высоте 2 м над землей.
Te - Эффективная температура - температура, которую ощущает одетый по сезону человек в тени. Характеристика душности погоды. При расчете учитывается влияние влажности воздуха и скорости ветра на теплоощущения человека.
Tes - Эффективная температура на солнце - температура, которую ощущает человек, с поправкой на солнечный нагрев. Характеристика знойности погоды. Зависит от высоты солнца над горизонтом, облачности и скорости ветра. Ночью, в пасмурную погоду, а также при ветре 12 м/с и более поправка равна нулю.
P - Атмосферное давление - приведенное к уровню моря атмосферное давление.
Po - Атмосферное давление - измеренное на уровне метеостанции атмосферное давление.
Tmin - Минимальная температура - минимум температуры воздуха на высоте 2 м над землей.
Tmax - Максимальная температура - максимум температуры воздуха на высоте 2 м над землей.
R - Количество осадков - Количество выпавших осадков за период времени, мм. При наведении курсора мыши на число - период времени, за который выпало указанное количество осадков.
R24 - Количество осадков - Количество выпавших осадков за 24 часа, мм.
S - Снежный покров - Высота снежного покрова, см. При наведении курсора мыши на число - состояние снежного покрова и степень покрытия местности в баллах.